FW4074 Weather Reports


time (UTC)temp
F
wind
direction
speed
knots
gust
knots
rain 1hr
in
rain 24hr
in
rain mn
in
humidity
%
barometer
mb
20260510164551 81 91 5.2 7.8 0.00 0.00 0.00 82 1014.5
20260510163054 81 105 4.3 7.8 0.00 0.00 0.00 83 1014.5
20260510161549 80 118 5.2 8.7 0.00 0.00 0.00 83 1014.6
20260510160045 80 101 3.5 8.7 0.00 0.00 0.00 84 1014.4
20260510154544 80 98 5.2 7.8 0.00 0.00 0.00 84 1014.3
20260510153048 80 103 4.3 7.8 0.00 0.00 0.00 85 1014.3
20260510151546 80 82 4.3 7.8 0.00 0.00 0.00 84 1014.0
20260510150041 80 144 5.2 8.7 0.00 0.00 0.00 85 1013.9
20260510144542 79 130 5.2 8.7 0.00 0.00 0.00 86 1013.8
20260510143035 79 140 6.1 9.6 0.00 0.00 0.00 87 1013.6
20260510141537 78 133 5.2 8.7 0.00 0.00 0.00 88 1013.5
20260510140032 78 150 5.2 9.6 0.00 0.00 0.00 89 1013.5
20260510134530 78 133 5.2 8.7 0.00 0.00 0.00 89 1013.3
20260510133030 77 143 6.1 9.6 0.00 0.00 0.00 90 1013.0
20260510131525 77 173 3.5 7.8 0.00 0.00 0.00 90 1012.8
20260510130024 77 144 3.5 7.0 0.00 0.00 0.00 90 1012.5
20260510124522 76 150 2.6 6.1 0.00 0.02 0.00 91 1012.3
20260510123022 76 148 2.6 5.2 0.00 0.02 0.00 91 1012.2
20260510121521 76 132 3.5 6.1 0.00 0.02 0.00 91 1011.8
20260510120020 76 147 2.6 7.8 0.00 0.04 0.00 91 1011.7
20260510114520 76 153 2.6 6.1 0.00 0.04 0.00 90 1011.6
20260510113019 76 142 4.3 7.8 0.00 0.04 0.00 90 1011.6
20260510111520 76 138 7.0 11.3 0.00 0.04 0.00 90 1011.5
20260510110021 76 171 5.2 9.6 0.00 0.04 0.00 90 1011.5
20260510104517 76 163 4.3 7.8 0.00 0.04 0.00 90 1011.4
20260510103015 76 142 6.1 9.6 0.00 0.04 0.00 89 1011.4
20260510101517 76 149 2.6 6.1 0.00 0.04 0.00 89 1011.2
20260510100014 76 171 3.5 6.1 0.00 0.04 0.00 89 1011.3
20260510094517 76 169 4.3 7.0 0.00 0.04 0.00 88 1011.4
20260510093012 76 178 5.2 7.8 0.00 0.04 0.00 88 1011.4
20260510091510 76 176 5.2 9.6 0.00 0.04 0.00 88 1011.4
20260510090015 76 162 5.2 7.0 0.00 0.04 0.00 88 1011.3
20260510084508 76 171 2.6 6.1 0.00 0.04 0.00 88 1011.3
20260510083006 76 164 4.3 6.1 0.00 0.04 0.00 87 1011.3
20260510081519 76 148 3.5 7.0 0.00 0.04 0.00 87 1011.3
20260510080005 76 146 3.5 6.1 0.00 0.04 0.00 87 1011.4
20260510074504 76 130 3.5 7.0 0.00 0.04 0.00 87 1011.3
20260510073003 76 126 5.2 8.7 0.00 0.04 0.00 87 1011.3
20260510071501 76 136 4.3 10.4 0.00 0.04 0.00 86 1011.4
20260510070105 77 134 5.2 8.7 0.00 0.04 0.00 86 1011.5
20260510064604 77 110 6.1 8.7 0.00 0.04 0.00 85 1011.7
20260510063058 77 131 4.3 10.4 0.00 0.04 0.00 84 1011.7
20260510061556 77 109 5.2 8.7 0.00 0.04 0.00 84 1012.0
20260510060054 77 94 7.0 11.3 0.00 0.04 0.00 84 1012.1
20260510054552 77 119 5.2 8.7 0.00 0.04 0.00 83 1012.1
20260510053050 77 98 3.5 7.8 0.00 0.04 0.00 83 1012.0
20260510051547 77 143 4.3 7.8 0.00 0.04 0.00 82 1011.7
20260510050043 77 141 4.3 7.8 0.00 0.04 0.00 81 1011.5
20260510044545 77 162 3.5 7.8 0.00 0.04 0.04 80 1011.5
20260510043045 78 155 4.3 9.6 0.00 0.04 0.04 80 1011.2
20260510041542 78 159 6.1 9.6 0.00 0.04 0.04 80 1011.0
20260510040042 78 168 7.0 9.6 0.00 0.04 0.04 80 1010.8
20260510034542 78 154 7.0 9.6 0.00 0.04 0.04 80 1011.2
20260510033051 78 126 4.3 8.7 0.00 0.04 0.04 79 1011.1
20260510031547 78 137 5.2 8.7 0.00 0.04 0.04 77 1011.1
20260510030040 78 158 5.2 9.6 0.00 0.04 0.04 77 1010.7
20260510024544 79 160 6.1 11.3 0.00 0.04 0.04 76 1010.3
20260510023040 79 172 7.8 14.8 0.00 0.04 0.04 76 1009.7
20260510021539 79 174 8.7 15.6 0.00 0.04 0.04 75 1009.2
20260510020039 79 190 8.7 12.2 0.00 0.04 0.04 74 1009.5
20260510014538 79 184 8.7 11.3 0.00 0.04 0.04 73 1009.2
20260510013038 80 201 6.1 9.6 0.00 0.04 0.04 73 1009.7
20260510011549 80 174 5.2 9.6 0.00 0.04 0.04 73 1009.6
20260510010037 80 150 5.2 8.7 0.00 0.04 0.04 73 1009.4
20260510004540 81 186 6.1 9.6 0.00 0.04 0.04 71 1009.4
20260510003058 81 144 7.0 13.0 0.00 0.04 0.04 72 1009.2
20260510001539 81 167 9.6 13.0 0.00 0.04 0.04 70 1009.1
20260510000038 82 167 7.8 13.0 0.00 0.04 0.04 71 1009.0
20260509234540 82 153 8.7 14.8 0.00 0.04 0.04 69 1009.2
20260509233034 83 160 10.4 14.8 0.00 0.04 0.04 66 1009.1
20260509231542 83 148 10.4 13.9 0.00 0.04 0.04 66 1009.3
20260509230035 84 177 9.6 13.9 0.00 0.04 0.04 66 1009.2
20260509224534 84 153 6.1 13.0 0.00 0.04 0.04 65 1009.1
20260509223032 85 161 7.8 8.7 0.00 0.04 0.04 67 1009.2
20260509221530 86 155 5.2 8.7 0.00 0.04 0.04 63 1009.1
20260509220029 86 165 1.7 7.8 0.00 0.04 0.04 60 1009.1
20260509214527 85 92 2.6 7.0 0.00 0.04 0.04 60 1009.2
20260509213025 85 105 3.5 7.0 0.00 0.04 0.04 61 1009.3
20260509211521 84 101 2.6 7.0 0.00 0.04 0.04 63 1009.3
20260509210023 83 96 4.3 7.8 0.00 0.04 0.04 65 1009.1
20260509204518 83 136 4.3 7.8 0.00 0.04 0.04 68 1009.4
20260509203021 82 96 2.6 7.0 0.00 0.04 0.04 72 1009.6
20260509201517 82 56 3.5 7.0 0.00 0.04 0.04 75 1009.7
20260509200021 81 61 3.5 8.7 0.00 0.04 0.04 76 1009.9
20260509194516 81 42 5.2 7.8 0.00 0.04 0.04 76 1010.0
20260509193014 81 53 3.5 8.7 0.00 0.04 0.04 76 1010.0
20260509191513 82 45 5.2 8.7 0.00 0.04 0.04 74 1010.1
20260509190016 81 22 7.0 10.4 0.00 0.04 0.04 72 1010.1
20260509184510 81 30 6.1 10.4 0.00 0.04 0.04 76 1010.1
20260509183021 81 345 5.2 10.4 0.00 0.04 0.04 76 1010.3
20260509181507 80 5 6.1 9.6 0.00 0.04 0.04 76 1010.4
20260509180007 80 360 4.3 10.4 0.00 0.04 0.04 76 1010.6
20260509174508 80 355 7.0 11.3 0.00 0.04 0.04 75 1010.7
20260509173006 80 348 7.0 11.3 0.00 0.04 0.04 74 1010.7
20260509171507 80 331 5.2 9.6 0.00 0.04 0.04 73 1010.6
20260509170006 79 345 5.2 7.8 0.00 0.04 0.04 74 1010.5